Regional Weather Roundup
Issued by NWS

Home | Current Version | Previous Version | Graphics & Text | Print | Product List | Glossary Off
Versions: 1 2 3 4 5 6 7 8 9 10 11 12 13 14 15 16 17 18 19 20 21 22 23 24 25 26 27 28 29 30 31 32 33 34 35 36 37 38 39 40 41 42 43 44 45 46 47 48 49 50

000
ASUS43 KTOP 262108
RWRKS

WEATHER ROUNDUP FOR KANSAS
NATIONAL WEATHER SERVICE GOODLAND KS
400 PM CDT FRI AUG 26 2016

NOTE:  "FAIR" INDICATES FEW OR NO CLOUDS BELOW 12,000 FEET WITH NO
SIGNIFICANT WEATHER AND/OR OBSTRUCTIONS TO VISIBILITY.

KSZ001>006-013>018-027>032-041>047-262200-
NORTHWEST KANSAS

CITY           SKY/WX    TMP DP  RH WIND       PRES   REMARKS
GOODLAND       CLOUDY    64  60  87 SE9       30.07F
HAYS           CLOUDY    72  57  60 SE5       30.04F
HILL CITY      PTSUNNY   75  63  66 E9        30.04F
RUSSELL        CLOUDY    71  65  81 CALM      30.03F
$$

KSZ061>065-074>080-084>089-262200-
SOUTHWEST KANSAS

CITY           SKY/WX    TMP DP  RH WIND       PRES   REMARKS
DODGE CITY     PTSUNNY   79  63  57 S9        30.03F
ELKHART          N/A     83  58  42 S12         N/A
GARDEN CITY    PTSUNNY   78  60  53 S10       30.03F
GREAT BEND     CLOUDY    77  63  61 S12G18    30.03F
LIBERAL        PTSUNNY   81  63  54 S7        30.06S
PRATT          PTSUNNY   75  64  67 SE8       30.03F
$$

KSZ066>073-081>083-090>101-262200-
SOUTHEAST KANSAS

CITY           SKY/WX    TMP DP  RH WIND       PRES   REMARKS
CHANUTE        MOSUNNY   85  70  60 SE5       30.00F
COFFEYVILLE    MOSUNNY   87  70  56 S10       29.99F
HUTCHINSON     PTSUNNY   81  65  58 SE8       30.03F
MEDICINE LODGE   N/A     80  65  59 SE8       30.02F
NEWTON         MOSUNNY   81  68  64 S9        30.03F
PARSONS        PTSUNNY   88  71  57 S6        30.00F
WICHITA INTL   PTSUNNY   84  67  56 S9        30.01F
WICHITA JABRA  MOSUNNY   81  67  62 SW7       30.01F
WICHITA MCCONL MOSUNNY   82  67  61 SW7       30.01F
WINFIELD       SUNNY     85  69  58 S8        30.02F
$$

KSZ007>012-019>026-033>040-048>060-102>105-262200-
NORTHEAST KANSAS

CITY           SKY/WX    TMP DP  RH WIND       PRES   REMARKS
CONCORDIA      CLOUDY    75  65  70 SW9       30.04F
EMPORIA        MOSUNNY   82  67  60 S12       30.01F
LAWRENCE       PTSUNNY   85  71  63 SE9       30.00F
MANHATTAN      PTSUNNY   80  68  66 SW9       30.01F
MARYSVILLE     RAIN      73  68  83 CALM      30.03F
OLATHE IND     PTSUNNY   83  70  64 S10       30.02F
OLATHE EXE     MOSUNNY   81  71  71 S10       30.02F
SALINA         CLOUDY    77  66  68 SW7       30.03F
TOPEKA BILLARD CLOUDY    82  69  64 S14       29.99F
TOPEKA FORBES  CLOUDY    85  69  58 S12       29.99F
$$




USA.gov is the U.S. government's official web portal to all federal, state and local government web resources and services.